sat.trackr.live / text

‹ back to catalog

STARLINK-4086

NORAD 52833 · 2022-062D

PAYLOAD ACTIVE UNKNOWN

§ Identity

Operator
Country
US
Launch date
2022-06-17
Launch site
AFETR
Launch vehicle
Mass (kg)
RCS (m²)

Purposes: comms

External: N2YO · Heavens-Above · Gunter

§ Orbital elements

Epoch: 2026-05-25T03:26:21.414624Z

Period
95.44 min
Inclination
53.2148°
Eccentricity
0.0001528
Mean motion
15.08851822 rev/d
Perigee alt
538.7 km
Apogee alt
540.8 km
Semi-major
6,917.8 km
B*
-1.3429e-4
RAAN
50.9036°
Arg perigee
74.9229°
Mean anomaly
285.1932°
Rev number
21,732

§ Raw data

STARLINK-40861 52833U 22062D   26145.14330341 -.00002425  00000+0 -13429-3 0  99962 52833  53.2148  50.9036 0001528  74.9229 285.1932 15.08851822217323

JSON: /api/v1/satellites/52833 · /tle

For live sub-satellite position, see the globe view (requires WebGL).

§ Visibility from observer

Set your observer location to see the next 7 days of passes ≥ 10°. The values pass through the URL so the page stays shareable.

No JS? Fill the form by hand. The geolocation button needs JavaScript.